| time (UTC) | temp F | wind direction | speed MPH | gust MPH | rain 1hr in | rain 24hr in | rain mn in | humidity % | barometer mb |
| 20260905191054 | 82 | 322 | 2.0 | 6.0 | 0.00 | 0.00 | 0.00 | 69 | 1016.0 |
| 20260905190554 | 82 | 9 | 1.0 | 6.0 | 0.00 | 0.00 | 0.00 | 69 | 1016.1 |
| 20260905190107 | 82 | 153 | 1.0 | 4.0 | 0.00 | 0.00 | 0.00 | 69 | 1016.0 |
| 20260905185554 | 82 | 159 | 2.0 | 6.0 | 0.00 | 0.00 | 0.00 | 70 | 1016.1 |
| 20260905185058 | 81 | 169 | 2.0 | 6.0 | 0.00 | 0.00 | 0.00 | 71 | 1016.2 |
| 20260905184554 | 81 | 248 | 2.0 | 8.0 | 0.00 | 0.00 | 0.00 | 70 | 1016.1 |
| 20260905184055 | 81 | 84 | 2.0 | 8.0 | 0.00 | 0.00 | 0.00 | 73 | 1016.1 |
| 20260905183554 | 80 | 314 | 2.0 | 7.0 | 0.00 | 0.00 | 0.00 | 73 | 1016.2 |
| 20260905183052 | 80 | 123 | 1.0 | 7.0 | 0.00 | 0.00 | 0.00 | 74 | 1016.2 |
| 20260905182550 | 80 | 132 | 1.0 | 2.0 | 0.00 | 0.00 | 0.00 | 75 | 1016.2 |
| 20260905182048 | 79 | 216 | 1.0 | 5.0 | 0.00 | 0.00 | 0.00 | 76 | 1016.3 |
| 20260905181546 | 79 | 325 | 1.0 | 5.0 | 0.00 | 0.00 | 0.00 | 76 | 1016.3 |
| 20260905181047 | 79 | 329 | 1.0 | 5.0 | 0.00 | 0.00 | 0.00 | 76 | 1016.3 |
| 20260905180547 | 78 | 108 | 2.0 | 7.0 | 0.00 | 0.00 | 0.00 | 78 | 1016.4 |
| 20260905180044 | 78 | 178 | 2.0 | 7.0 | 0.00 | 0.00 | 0.00 | 77 | 1016.4 |
| 20260905175539 | 78 | 145 | 1.0 | 3.0 | 0.00 | 0.00 | 0.00 | 79 | 1016.6 |
| 20260905175034 | 78 | 60 | 1.0 | 6.0 | 0.00 | 0.00 | 0.00 | 78 | 1016.5 |
| 20260905174534 | 78 | 88 | 2.0 | 6.0 | 0.00 | 0.00 | 0.00 | 77 | 1016.6 |
| 20260905174035 | 79 | 57 | 2.0 | 5.0 | 0.00 | 0.00 | 0.00 | 76 | 1016.8 |
| 20260905173534 | 79 | 130 | 2.0 | 4.0 | 0.00 | 0.00 | 0.00 | 78 | 1016.8 |
| 20260905173254 | 78 | 157 | 2.0 | 6.0 | 0.00 | 0.00 | 0.00 | 78 | 1016.8 |
| 20260905172534 | 78 | 240 | 2.0 | 6.0 | 0.00 | 0.00 | 0.00 | 80 | 1016.9 |
| 20260905172033 | 77 | 161 | 2.0 | 5.0 | 0.00 | 0.00 | 0.00 | 80 | 1016.9 |
| 20260905171756 | 77 | 146 | 2.0 | 6.0 | 0.00 | 0.00 | 0.00 | 80 | 1016.9 |
| 20260905171033 | 77 | 158 | 2.0 | 6.0 | 0.00 | 0.00 | 0.00 | 80 | 1016.9 |
| 20260905170535 | 76 | 67 | 2.0 | 6.0 | 0.00 | 0.00 | 0.00 | 81 | 1016.9 |
| 20260905170518 | 76 | 76 | 3.0 | 8.0 | 0.00 | 0.00 | 0.00 | 82 | 1017.0 |
| 20260905165546 | 76 | 142 | 2.0 | 8.0 | 0.00 | 0.00 | 0.00 | 81 | 1017.0 |
| 20260905165252 | 77 | 166 | 1.0 | 6.0 | 0.00 | 0.00 | 0.00 | 82 | 1017.0 |
| 20260905164534 | 76 | 84 | 1.0 | 6.0 | 0.00 | 0.00 | 0.00 | 81 | 1017.1 |
| 20260905164034 | 77 | 136 | 2.0 | 5.0 | 0.00 | 0.00 | 0.00 | 82 | 1017.2 |
| 20260905163536 | 76 | 161 | 2.0 | 5.0 | 0.00 | 0.00 | 0.00 | 83 | 1017.2 |
| 20260905163035 | 76 | 161 | 2.0 | 5.0 | 0.00 | 0.00 | 0.00 | 82 | 1017.1 |
| 20260905162756 | 76 | 133 | 2.0 | 5.0 | 0.00 | 0.00 | 0.00 | 83 | 1017.2 |
| 20260905162034 | 75 | 157 | 1.0 | 5.0 | 0.00 | 0.00 | 0.00 | 85 | 1017.1 |
| 20260905161533 | 75 | 343 | 1.0 | 7.0 | 0.00 | 0.00 | 0.00 | 84 | 1017.0 |
| 20260905161035 | 75 | 92 | 1.0 | 7.0 | 0.00 | 0.00 | 0.00 | 85 | 1017.1 |
| 20260905160538 | 74 | 155 | 1.0 | 4.0 | 0.00 | 0.00 | 0.00 | 86 | 1017.1 |
| 20260905160034 | 74 | 77 | 1.0 | 5.0 | 0.00 | 0.00 | 0.00 | 87 | 1017.2 |
| 20260905155535 | 74 | 75 | 1.0 | 5.0 | 0.00 | 0.00 | 0.00 | 87 | 1017.1 |
| 20260905155035 | 74 | 246 | 1.0 | 4.0 | 0.00 | 0.00 | 0.00 | 89 | 1017.1 |
| 20260905154546 | 73 | 114 | 1.0 | 5.0 | 0.00 | 0.00 | 0.00 | 89 | 1017.1 |
| 20260905154514 | 73 | 49 | 1.0 | 5.0 | 0.00 | 0.00 | 0.00 | 89 | 1017.0 |
| 20260905153532 | 73 | 43 | 1.0 | 2.0 | 0.00 | 0.00 | 0.00 | 91 | 1016.9 |
| 20260905153032 | 73 | 82 | 1.0 | 7.0 | 0.00 | 0.00 | 0.00 | 92 | 1016.8 |
| 20260905152754 | 72 | 82 | 1.0 | 7.0 | 0.00 | 0.00 | 0.00 | 92 | 1016.7 |
| 20260905152032 | 72 | 82 | 1.0 | 6.0 | 0.00 | 0.00 | 0.00 | 93 | 1016.6 |
| 20260905151533 | 71 | 94 | 1.0 | 5.0 | 0.00 | 0.00 | 0.00 | 94 | 1016.6 |
| 20260905151032 | 71 | 94 | 1.0 | 8.0 | 0.00 | 0.00 | 0.00 | 94 | 1016.5 |
| 20260905150753 | 71 | 75 | 1.0 | 8.0 | 0.00 | 0.00 | 0.00 | 94 | 1016.4 |
| 20260905150033 | 71 | 39 | 0.0 | 3.0 | 0.00 | 0.00 | 0.00 | 94 | 1016.4 |
| 20260905145530 | 70 | 323 | 1.0 | 6.0 | 0.00 | 0.00 | 0.00 | 95 | 1016.5 |
| 20260905145030 | 70 | 65 | 1.0 | 6.0 | 0.00 | 0.00 | 0.00 | 95 | 1016.6 |
| 20260905144529 | 70 | 77 | 1.0 | 3.0 | 0.00 | 0.00 | 0.00 | 95 | 1016.5 |
| 20260905144030 | 70 | 87 | 2.0 | 4.0 | 0.00 | 0.00 | 0.00 | 95 | 1016.6 |
| 20260905143528 | 70 | 340 | 1.0 | 4.0 | 0.00 | 0.00 | 0.00 | 95 | 1016.6 |
| 20260905143029 | 69 | 49 | 1.0 | 3.0 | 0.00 | 0.00 | 0.00 | 95 | 1016.6 |
| 20260905142527 | 69 | 345 | 1.0 | 5.0 | 0.00 | 0.00 | 0.00 | 95 | 1016.6 |
| 20260905142257 | 69 | 93 | 1.0 | 5.0 | 0.00 | 0.00 | 0.00 | 95 | 1016.5 |
| 20260905141528 | 69 | 82 | 0.0 | 3.0 | 0.00 | 0.00 | 0.00 | 96 | 1016.6 |
| 20260905141027 | 69 | 13 | 1.0 | 5.0 | 0.00 | 0.00 | 0.00 | 96 | 1016.6 |
| 20260905140756 | 69 | 96 | 1.0 | 5.0 | 0.00 | 0.00 | 0.00 | 96 | 1016.6 |
| 20260905140030 | 69 | 78 | 0.0 | 2.0 | 0.00 | 0.00 | 0.00 | 96 | 1016.7 |
| 20260905135525 | 69 | 78 | 0.0 | 1.0 | 0.00 | 0.00 | 0.00 | 96 | 1016.8 |
| 20260905135026 | 69 | 78 | 0.0 | 1.0 | 0.00 | 0.00 | 0.00 | 96 | 1016.7 |
| 20260905134752 | 69 | 78 | 1.0 | 3.0 | 0.00 | 0.00 | 0.00 | 96 | 1016.6 |
| 20260905134022 | 69 | 78 | 1.0 | 3.0 | 0.00 | 0.00 | 0.00 | 96 | 1016.5 |
| 20260905133525 | 69 | 42 | 1.0 | 3.0 | 0.00 | 0.00 | 0.00 | 96 | 1016.4 |
| 20260905133021 | 69 | 38 | 0.0 | 2.0 | 0.00 | 0.00 | 0.00 | 96 | 1016.3 |
| 20260905132523 | 69 | 315 | 0.0 | 2.0 | 0.00 | 0.00 | 0.00 | 96 | 1016.5 |
| 20260905132021 | 69 | 314 | 1.0 | 2.0 | 0.00 | 0.00 | 0.00 | 96 | 1016.3 |
| 20260905131520 | 69 | 313 | 1.0 | 4.0 | 0.00 | 0.00 | 0.00 | 96 | 1016.2 |
| 20260905131018 | 69 | 311 | 0.0 | 4.0 | 0.00 | 0.00 | 0.00 | 96 | 1016.0 |
| 20260905130512 | 69 | 71 | 0.0 | 0.0 | 0.00 | 0.00 | 0.00 | 96 | 1015.8 |
| 20260905130006 | 69 | 71 | 0.0 | 3.0 | 0.00 | 0.00 | 0.00 | 96 | 1015.6 |
| 20260905125455 | 69 | 71 | 1.0 | 3.0 | 0.00 | 0.00 | 0.00 | 96 | 1015.3 |
| 20260905124954 | 69 | 44 | 1.0 | 5.0 | 0.00 | 0.00 | 0.00 | 96 | 1015.2 |
| 20260905124449 | 69 | 71 | 1.0 | 5.0 | 0.00 | 0.00 | 0.00 | 96 | 1015.0 |
| 20260905123947 | 69 | 175 | 1.0 | 3.0 | 0.00 | 0.00 | 0.00 | 96 | 1014.9 |
| 20260905123445 | 68 | 91 | 1.0 | 5.0 | 0.00 | 0.00 | 0.00 | 96 | 1014.9 |
| 20260905122946 | 68 | 90 | 1.0 | 5.0 | 0.00 | 0.00 | 0.00 | 96 | 1014.9 |
| 20260905122447 | 68 | 29 | 1.0 | 4.0 | 0.00 | 0.00 | 0.00 | 96 | 1015.0 |
| 20260905122306 | 68 | 31 | 1.0 | 4.0 | 0.00 | 0.00 | 0.00 | 96 | 1015.3 |
| 20260905122212 | 68 | 78 | 1.0 | 4.0 | 0.00 | 0.00 | 0.00 | 96 | 1015.2 |
| 20260905120944 | 68 | 336 | 1.0 | 4.0 | 0.00 | 0.00 | 0.00 | 96 | 1015.3 |
| 20260905120707 | 68 | 322 | 1.0 | 3.0 | 0.00 | 0.00 | 0.00 | 95 | 1015.3 |
| 20260905115945 | 68 | 322 | 1.0 | 3.0 | 0.00 | 0.00 | 0.00 | 95 | 1015.4 |
| 20260905115441 | 68 | 355 | 1.0 | 4.0 | 0.00 | 0.00 | 0.00 | 95 | 1015.4 |
| 20260905114940 | 68 | 62 | 1.0 | 4.0 | 0.00 | 0.00 | 0.00 | 95 | 1015.3 |
| 20260905114437 | 68 | 311 | 0.0 | 3.0 | 0.00 | 0.00 | 0.00 | 95 | 1015.0 |
| 20260905113939 | 68 | 296 | 0.0 | 1.0 | 0.00 | 0.00 | 0.00 | 95 | 1014.9 |
| 20260905113440 | 68 | 296 | 0.0 | 3.0 | 0.00 | 0.00 | 0.00 | 95 | 1015.0 |
| 20260905112950 | 68 | 296 | 1.0 | 3.0 | 0.00 | 0.00 | 0.00 | 95 | 1014.8 |
| 20260905112653 | 68 | 25 | 0.0 | 2.0 | 0.00 | 0.00 | 0.00 | 95 | 1014.9 |
| 20260905112534 | 68 | 329 | 1.0 | 3.0 | 0.00 | 0.00 | 0.00 | 95 | 1014.9 |
| 20260905111436 | 68 | 18 | 0.0 | 0.0 | 0.00 | 0.00 | 0.00 | 95 | 1014.9 |
| 20260905110935 | 68 | 18 | 0.0 | 0.0 | 0.00 | 0.00 | 0.00 | 95 | 1015.0 |
| 20260905110432 | 68 | 19 | 0.0 | 0.0 | 0.00 | 0.00 | 0.00 | 95 | 1014.9 |
| 20260905105931 | 68 | 21 | 0.0 | 0.0 | 0.00 | 0.00 | 0.00 | 95 | 1014.9 |
| 20260905105430 | 68 | 21 | 0.0 | 0.0 | 0.00 | 0.00 | 0.00 | 95 | 1014.8 |
| 20260905104930 | 68 | 19 | 0.0 | 0.0 | 0.00 | 0.00 | 0.00 | 95 | 1014.9 |
| 20260905104431 | 68 | 19 | 0.0 | 3.0 | 0.00 | 0.00 | 0.00 | 95 | 1014.9 |
| 20260905103930 | 68 | 19 | 1.0 | 3.0 | 0.00 | 0.00 | 0.00 | 95 | 1014.8 |
| 20260905103428 | 68 | 39 | 1.0 | 3.0 | 0.00 | 0.00 | 0.00 | 95 | 1014.6 |
| 20260905102926 | 68 | 71 | 1.0 | 5.0 | 0.00 | 0.00 | 0.00 | 95 | 1014.6 |
| 20260905102422 | 67 | 86 | 2.0 | 6.0 | 0.00 | 0.00 | 0.00 | 94 | 1014.6 |
| 20260905101923 | 68 | 70 | 1.0 | 6.0 | 0.00 | 0.00 | 0.00 | 94 | 1014.7 |
| 20260905101641 | 68 | 65 | 1.0 | 4.0 | 0.00 | 0.00 | 0.00 | 94 | 1015.0 |
| 20260905100922 | 67 | 99 | 2.0 | 7.0 | 0.00 | 0.00 | 0.00 | 94 | 1014.8 |
| 20260905100431 | 67 | 86 | 2.0 | 7.0 | 0.00 | 0.00 | 0.00 | 94 | 1014.4 |
| 20260905095918 | 67 | 127 | 2.0 | 7.0 | 0.00 | 0.00 | 0.00 | 94 | 1014.3 |
| 20260905095418 | 67 | 92 | 1.0 | 5.0 | 0.00 | 0.00 | 0.00 | 94 | 1014.2 |
| 20260905094917 | 67 | 73 | 1.0 | 5.0 | 0.00 | 0.00 | 0.00 | 94 | 1014.2 |
| 20260905094641 | 67 | 17 | 2.0 | 5.0 | 0.00 | 0.00 | 0.00 | 94 | 1014.0 |
| 20260905093913 | 68 | 26 | 1.0 | 5.0 | 0.00 | 0.00 | 0.00 | 93 | 1014.0 |
| 20260905093412 | 68 | 53 | 1.0 | 5.0 | 0.00 | 0.00 | 0.00 | 93 | 1014.1 |
| 20260905092912 | 68 | 321 | 1.0 | 5.0 | 0.00 | 0.00 | 0.00 | 93 | 1014.1 |
| 20260905092411 | 68 | 55 | 1.0 | 6.0 | 0.00 | 0.00 | 0.00 | 93 | 1014.0 |
| 20260905091911 | 68 | 67 | 2.0 | 6.0 | 0.00 | 0.00 | 0.00 | 93 | 1014.0 |
| 20260905091411 | 68 | 38 | 2.0 | 7.0 | 0.00 | 0.00 | 0.00 | 93 | 1014.2 |
| 20260905091133 | 68 | 61 | 1.0 | 7.0 | 0.00 | 0.00 | 0.00 | 93 | 1014.3 |
| 20260905090630 | 68 | 329 | 1.0 | 5.0 | 0.00 | 0.00 | 0.00 | 93 | 1014.4 |
| 20260905085910 | 68 | 327 | 1.0 | 5.0 | 0.00 | 0.00 | 0.00 | 93 | 1014.5 |
| 20260905085407 | 68 | 355 | 1.0 | 4.0 | 0.00 | 0.00 | 0.00 | 93 | 1014.4 |
| 20260905084907 | 68 | 49 | 1.0 | 5.0 | 0.00 | 0.00 | 0.00 | 93 | 1014.5 |
| 20260905084407 | 68 | 53 | 2.0 | 5.0 | 0.00 | 0.00 | 0.00 | 93 | 1014.5 |
| 20260905083908 | 68 | 323 | 2.0 | 6.0 | 0.00 | 0.00 | 0.00 | 93 | 1014.6 |
| 20260905083408 | 68 | 335 | 1.0 | 6.0 | 0.00 | 0.00 | 0.00 | 93 | 1014.6 |
| 20260905082909 | 68 | 46 | 1.0 | 4.0 | 0.00 | 0.00 | 0.00 | 93 | 1014.5 |
| 20260905082408 | 68 | 64 | 1.0 | 4.0 | 0.00 | 0.00 | 0.00 | 93 | 1014.5 |
| 20260905081908 | 68 | 327 | 1.0 | 5.0 | 0.00 | 0.00 | 0.00 | 93 | 1014.5 |
| 20260905081407 | 68 | 16 | 2.0 | 6.0 | 0.00 | 0.00 | 0.00 | 93 | 1014.5 |
| 20260905080907 | 68 | 5 | 2.0 | 6.0 | 0.00 | 0.00 | 0.00 | 93 | 1014.6 |
| 20260905080406 | 68 | 346 | 1.0 | 5.0 | 0.00 | 0.00 | 0.00 | 93 | 1014.6 |
| 20260905075905 | 68 | 82 | 1.0 | 5.0 | 0.00 | 0.00 | 0.00 | 93 | 1014.6 |
| 20260905075404 | 68 | 17 | 1.0 | 4.0 | 0.00 | 0.00 | 0.00 | 93 | 1014.8 |
| 20260905075120 | 68 | 62 | 1.0 | 4.0 | 0.00 | 0.00 | 0.00 | 93 | 1014.8 |
| 20260905074626 | 68 | 346 | 1.0 | 4.0 | 0.00 | 0.00 | 0.00 | 93 | 1014.8 |
| 20260905073848 | 68 | 57 | 1.0 | 5.0 | 0.00 | 0.00 | 0.00 | 93 | 1014.8 |
| 20260905073348 | 68 | 84 | 1.0 | 6.0 | 0.00 | 0.00 | 0.00 | 93 | 1014.8 |
| 20260905072845 | 68 | 327 | 1.0 | 6.0 | 0.00 | 0.00 | 0.00 | 93 | 1014.9 |
| 20260905072344 | 68 | 66 | 1.0 | 4.0 | 0.00 | 0.00 | 0.00 | 93 | 1014.8 |
| 20260905071843 | 68 | 67 | 1.0 | 5.0 | 0.00 | 0.00 | 0.00 | 92 | 1014.8 |
| 20260905071830 | 68 | 21 | 1.0 | 6.0 | 0.00 | 0.00 | 0.00 | 92 | 1014.8 |
| 20260905070841 | 68 | 325 | 1.0 | 6.0 | 0.00 | 0.00 | 0.00 | 92 | 1014.7 |
| 20260905070341 | 68 | 355 | 1.0 | 3.0 | 0.00 | 0.00 | 0.00 | 92 | 1014.7 |
| 20260905065842 | 68 | 350 | 1.0 | 5.0 | 0.00 | 0.00 | 0.00 | 92 | 1014.7 |
| 20260905065824 | 68 | 5 | 1.0 | 5.0 | 0.00 | 0.00 | 0.00 | 92 | 1014.7 |
| 20260905064841 | 68 | 5 | 0.0 | 4.0 | 0.00 | 0.00 | 0.00 | 92 | 1014.7 |
| 20260905064338 | 68 | 67 | 0.0 | 5.0 | 0.00 | 0.00 | 0.00 | 92 | 1014.8 |
| 20260905063839 | 68 | 67 | 1.0 | 5.0 | 0.00 | 0.00 | 0.00 | 92 | 1014.9 |
| 20260905063556 | 68 | 331 | 1.0 | 5.0 | 0.00 | 0.00 | 0.00 | 91 | 1014.9 |
| 20260905062839 | 68 | 329 | 1.0 | 6.0 | 0.00 | 0.00 | 0.00 | 91 | 1014.7 |
| 20260905062340 | 68 | 334 | 1.0 | 6.0 | 0.00 | 0.00 | 0.00 | 91 | 1014.7 |
| 20260905061834 | 68 | 12 | 1.0 | 4.0 | 0.00 | 0.00 | 0.00 | 91 | 1014.8 |
| 20260905061335 | 68 | 15 | 1.0 | 4.0 | 0.00 | 0.00 | 0.00 | 91 | 1014.8 |
| 20260905060833 | 68 | 330 | 1.0 | 4.0 | 0.00 | 0.00 | 0.00 | 90 | 1014.7 |
| 20260905060333 | 68 | 325 | 0.0 | 3.0 | 0.00 | 0.00 | 0.00 | 90 | 1014.7 |
| 20260905055833 | 68 | 325 | 0.0 | 3.0 | 0.00 | 0.00 | 0.00 | 90 | 1014.6 |
| 20260905055604 | 68 | 325 | 1.0 | 3.0 | 0.00 | 0.00 | 0.00 | 90 | 1014.5 |
| 20260905055056 | 68 | 325 | 1.0 | 4.0 | 0.00 | 0.00 | 0.00 | 90 | 1014.4 |
| 20260905054335 | 69 | 327 | 0.0 | 4.0 | 0.00 | 0.00 | 0.00 | 89 | 1014.5 |
| 20260905053831 | 69 | 326 | 1.0 | 3.0 | 0.00 | 0.00 | 0.00 | 89 | 1014.5 |
| 20260905053331 | 69 | 63 | 1.0 | 5.0 | 0.00 | 0.00 | 0.00 | 89 | 1014.3 |
| 20260905052831 | 69 | 65 | 1.0 | 5.0 | 0.00 | 0.00 | 0.00 | 89 | 1014.2 |
| 20260905052331 | 69 | 12 | 1.0 | 5.0 | 0.00 | 0.00 | 0.00 | 88 | 1014.2 |
| 20260905051832 | 69 | 297 | 1.0 | 5.0 | 0.00 | 0.00 | 0.00 | 88 | 1014.3 |
| 20260905051331 | 69 | 355 | 1.0 | 4.0 | 0.00 | 0.00 | 0.00 | 88 | 1014.1 |
| 20260905050829 | 69 | 63 | 1.0 | 4.0 | 0.00 | 0.00 | 0.00 | 88 | 1014.0 |
| 20260905050326 | 70 | 85 | 0.0 | 4.0 | 0.00 | 0.00 | 0.00 | 87 | 1014.0 |
| 20260905045824 | 70 | 35 | 0.0 | 4.0 | 0.00 | 0.00 | 0.00 | 87 | 1014.0 |
| 20260905045325 | 70 | 322 | 0.0 | 3.0 | 0.00 | 0.00 | 0.00 | 87 | 1014.1 |
| 20260905044826 | 70 | 319 | 1.0 | 4.0 | 0.00 | 0.00 | 0.00 | 87 | 1014.1 |
| 20260905044327 | 70 | 15 | 1.0 | 4.0 | 0.00 | 0.00 | 0.00 | 86 | 1014.1 |
| 20260905043825 | 70 | 332 | 1.0 | 4.0 | 0.00 | 0.00 | 0.00 | 86 | 1014.1 |
| 20260905043325 | 71 | 102 | 0.0 | 4.0 | 0.00 | 0.00 | 0.00 | 86 | 1014.2 |
| 20260905042825 | 71 | 345 | 0.0 | 2.0 | 0.00 | 0.00 | 0.00 | 86 | 1014.2 |
| 20260905042544 | 71 | 346 | 0.0 | 3.0 | 0.00 | 0.00 | 0.00 | 85 | 1014.3 |
| 20260905041825 | 71 | 90 | 1.0 | 7.0 | 0.00 | 0.00 | 0.00 | 85 | 1014.3 |
| 20260905041549 | 71 | 346 | 1.0 | 7.0 | 0.00 | 0.00 | 0.00 | 85 | 1014.3 |
| 20260905040825 | 71 | 5 | 0.0 | 3.0 | 0.00 | 0.00 | 0.00 | 84 | 1014.2 |
| 20260905040325 | 72 | 39 | 1.0 | 5.0 | 0.00 | 0.00 | 0.00 | 84 | 1014.0 |
| 20260905035824 | 72 | 328 | 1.0 | 5.0 | 0.00 | 0.00 | 0.00 | 84 | 1014.2 |
| 20260905035324 | 72 | 308 | 1.0 | 5.0 | 0.00 | 0.00 | 0.00 | 83 | 1014.2 |
| 20260905035048 | 72 | 80 | 2.0 | 8.0 | 0.00 | 0.00 | 0.00 | 83 | 1014.2 |
| 20260905034325 | 72 | 25 | 2.0 | 8.0 | 0.00 | 0.00 | 0.00 | 83 | 1014.2 |
| 20260905033824 | 73 | 24 | 1.0 | 5.0 | 0.00 | 0.00 | 0.00 | 82 | 1014.1 |
| 20260905033323 | 73 | 151 | 2.0 | 6.0 | 0.00 | 0.00 | 0.00 | 82 | 1014.1 |
| 20260905032822 | 73 | 5 | 1.0 | 6.0 | 0.00 | 0.00 | 0.00 | 82 | 1014.1 |
| 20260905032320 | 73 | 329 | 1.0 | 4.0 | 0.00 | 0.00 | 0.00 | 81 | 1014.1 |
| 20260905031818 | 73 | 336 | 1.0 | 6.0 | 0.00 | 0.00 | 0.00 | 81 | 1014.0 |
| 20260905031320 | 74 | 5 | 2.0 | 6.0 | 0.00 | 0.00 | 0.00 | 81 | 1014.0 |
| 20260905030818 | 74 | 5 | 2.0 | 6.0 | 0.00 | 0.00 | 0.00 | 81 | 1014.0 |
| 20260905030320 | 74 | 15 | 2.0 | 6.0 | 0.00 | 0.00 | 0.00 | 80 | 1014.0 |
| 20260905025833 | 74 | 25 | 1.0 | 6.0 | 0.00 | 0.00 | 0.00 | 80 | 1014.0 |
| 20260905025318 | 74 | 322 | 2.0 | 6.0 | 0.00 | 0.00 | 0.00 | 80 | 1013.9 |
| 20260905024817 | 75 | 17 | 2.0 | 4.0 | 0.00 | 0.00 | 0.00 | 79 | 1013.7 |
| 20260905024315 | 75 | 0 | 2.0 | 5.0 | 0.00 | 0.00 | 0.00 | 79 | 1013.7 |
| 20260905023813 | 75 | 308 | 1.0 | 6.0 | 0.00 | 0.00 | 0.00 | 78 | 1013.6 |
| 20260905023317 | 75 | 42 | 1.0 | 6.0 | 0.00 | 0.00 | 0.00 | 78 | 1013.5 |
| 20260905022815 | 76 | 5 | 2.0 | 7.0 | 0.00 | 0.00 | 0.00 | 77 | 1013.5 |
| 20260905022315 | 76 | 355 | 3.0 | 7.0 | 0.00 | 0.00 | 0.00 | 77 | 1013.5 |
| 20260905021826 | 76 | 325 | 2.0 | 9.0 | 0.00 | 0.00 | 0.00 | 77 | 1013.5 |
| 20260905021316 | 76 | 317 | 2.0 | 9.0 | 0.00 | 0.00 | 0.00 | 76 | 1013.4 |
| 20260905020813 | 77 | 40 | 3.0 | 9.0 | 0.00 | 0.00 | 0.00 | 76 | 1013.4 |
| 20260905020313 | 77 | 294 | 3.0 | 7.0 | 0.00 | 0.00 | 0.00 | 75 | 1013.4 |
| 20260905015813 | 77 | 59 | 2.0 | 6.0 | 0.00 | 0.00 | 0.00 | 75 | 1013.3 |
| 20260905015314 | 78 | 350 | 2.0 | 10.0 | 0.00 | 0.00 | 0.00 | 75 | 1013.3 |
| 20260905015027 | 78 | 40 | 3.0 | 10.0 | 0.00 | 0.00 | 0.00 | 74 | 1013.2 |
| 20260905014311 | 78 | 338 | 3.0 | 8.0 | 0.00 | 0.00 | 0.00 | 74 | 1013.2 |
| 20260905013809 | 78 | 355 | 2.0 | 8.0 | 0.00 | 0.00 | 0.00 | 74 | 1013.1 |
| 20260905013754 | 79 | 14 | 2.0 | 8.0 | 0.00 | 0.00 | 0.00 | 74 | 1013.1 |
| 20260905013023 | 79 | 320 | 2.0 | 6.0 | 0.00 | 0.00 | 0.00 | 74 | 1013.0 |
| 20260905012255 | 79 | 334 | 1.0 | 5.0 | 0.00 | 0.00 | 0.00 | 74 | 1012.9 |
| 20260905011755 | 79 | 285 | 0.0 | 2.0 | 0.00 | 0.00 | 0.00 | 73 | 1012.9 |
| 20260905011254 | 80 | 346 | 0.0 | 3.0 | 0.00 | 0.00 | 0.00 | 73 | 1012.8 |
| 20260905010755 | 80 | 346 | 0.0 | 3.0 | 0.00 | 0.00 | 0.00 | 72 | 1012.7 |
| 20260905010252 | 80 | 30 | 0.0 | 2.0 | 0.00 | 0.00 | 0.00 | 72 | 1012.6 |
| 20260905005753 | 80 | 48 | 0.0 | 2.0 | 0.00 | 0.00 | 0.00 | 71 | 1012.5 |
| 20260905005306 | 81 | 48 | 0.0 | 2.0 | 0.00 | 0.00 | 0.00 | 71 | 1012.6 |
| 20260905004749 | 81 | 48 | 0.0 | 2.0 | 0.00 | 0.00 | 0.00 | 70 | 1012.7 |
| 20260905004247 | 81 | 319 | 1.0 | 3.0 | 0.00 | 0.00 | 0.00 | 70 | 1012.6 |
| 20260905003746 | 81 | 316 | 0.0 | 3.0 | 0.00 | 0.00 | 0.00 | 69 | 1012.6 |
| 20260905003248 | 82 | 40 | 0.0 | 2.0 | 0.00 | 0.00 | 0.00 | 69 | 1012.5 |
| 20260905002746 | 82 | 40 | 0.0 | 3.0 | 0.00 | 0.00 | 0.00 | 68 | 1012.5 |
| 20260905002248 | 82 | 67 | 1.0 | 4.0 | 0.00 | 0.00 | 0.00 | 68 | 1012.4 |
| 20260905001744 | 82 | 89 | 1.0 | 4.0 | 0.00 | 0.00 | 0.00 | 68 | 1012.3 |
| 20260905001244 | 83 | 321 | 1.0 | 4.0 | 0.00 | 0.00 | 0.00 | 68 | 1012.3 |
| 20260905000744 | 83 | 11 | 1.0 | 4.0 | 0.00 | 0.00 | 0.00 | 67 | 1012.4 |
| 20260905000241 | 83 | 320 | 1.0 | 4.0 | 0.00 | 0.00 | 0.00 | 67 | 1012.3 |
| 20260904235734 | 83 | 292 | 2.0 | 7.0 | 0.00 | 0.00 | 0.00 | 67 | 1012.3 |
| 20260904235235 | 83 | 135 | 1.0 | 7.0 | 0.00 | 0.00 | 0.00 | 67 | 1012.3 |
| 20260904234958 | 83 | 328 | 1.0 | 4.0 | 0.00 | 0.00 | 0.00 | 66 | 1012.3 |
| 20260904234234 | 84 | 52 | 1.0 | 4.0 | 0.00 | 0.00 | 0.00 | 67 | 1012.2 |
| 20260904233734 | 84 | 351 | 1.0 | 4.0 | 0.00 | 0.00 | 0.00 | 67 | 1012.2 |
| 20260904233234 | 84 | 58 | 1.0 | 5.0 | 0.00 | 0.00 | 0.00 | 67 | 1012.2 |
| 20260904232734 | 84 | 334 | 1.0 | 5.0 | 0.00 | 0.00 | 0.00 | 67 | 1012.2 |
| 20260904232236 | 84 | 344 | 2.0 | 5.0 | 0.00 | 0.00 | 0.00 | 66 | 1012.2 |
| 20260904231735 | 84 | 339 | 2.0 | 5.0 | 0.00 | 0.00 | 0.00 | 66 | 1012.1 |
| 20260904231709 | 84 | 325 | 3.0 | 7.0 | 0.00 | 0.00 | 0.00 | 66 | 1012.1 |
| 20260904230733 | 85 | 349 | 2.0 | 7.0 | 0.00 | 0.00 | 0.00 | 66 | 1012.2 |
| 20260904230232 | 85 | 296 | 1.0 | 6.0 | 0.00 | 0.00 | 0.00 | 66 | 1012.1 |
| 20260904225732 | 85 | 329 | 1.0 | 6.0 | 0.00 | 0.00 | 0.00 | 67 | 1012.0 |
| 20260904225233 | 84 | 0 | 1.0 | 3.0 | 0.00 | 0.00 | 0.00 | 67 | 1012.0 |
| 20260904224955 | 84 | 88 | 2.0 | 5.0 | 0.00 | 0.00 | 0.00 | 67 | 1012.0 |
| 20260904224232 | 84 | 5 | 2.0 | 5.0 | 0.00 | 0.00 | 0.00 | 67 | 1011.9 |
| 20260904223732 | 84 | 338 | 2.0 | 6.0 | 0.00 | 0.00 | 0.00 | 68 | 1011.9 |
| 20260904223233 | 84 | 330 | 3.0 | 9.0 | 0.00 | 0.00 | 0.00 | 68 | 1011.9 |
| 20260904222732 | 84 | 309 | 3.0 | 9.0 | 0.00 | 0.00 | 0.00 | 68 | 1011.8 |
| 20260904222453 | 85 | 298 | 3.0 | 8.0 | 0.00 | 0.00 | 0.00 | 68 | 1011.8 |
| 20260904221733 | 85 | 355 | 2.0 | 6.0 | 0.00 | 0.00 | 0.00 | 68 | 1011.7 |
| 20260904221232 | 85 | 5 | 2.0 | 6.0 | 0.00 | 0.00 | 0.00 | 69 | 1011.7 |
| 20260904220733 | 85 | 344 | 2.0 | 6.0 | 0.00 | 0.00 | 0.00 | 69 | 1011.6 |
| 20260904220231 | 85 | 344 | 2.0 | 6.0 | 0.00 | 0.00 | 0.00 | 69 | 1011.5 |
| 20260904215728 | 85 | 24 | 2.0 | 7.0 | 0.00 | 0.00 | 0.00 | 69 | 1011.4 |
| 20260904215226 | 85 | 340 | 2.0 | 7.0 | 0.00 | 0.00 | 0.00 | 71 | 1011.4 |
| 20260904214724 | 85 | 126 | 2.0 | 7.0 | 0.00 | 0.00 | 0.00 | 71 | 1011.4 |
| 20260904214225 | 85 | 335 | 2.0 | 7.0 | 0.00 | 0.00 | 0.00 | 71 | 1011.4 |
| 20260904214042 | 85 | 350 | 2.0 | 8.0 | 0.00 | 0.00 | 0.00 | 70 | 1011.4 |
| 20260904213940 | 85 | 323 | 3.0 | 8.0 | 0.00 | 0.00 | 0.00 | 70 | 1011.4 |
| 20260904212948 | 85 | 335 | 2.0 | 8.0 | 0.00 | 0.00 | 0.00 | 70 | 1011.5 |
| 20260904212220 | 85 | 321 | 2.0 | 8.0 | 0.00 | 0.00 | 0.00 | 70 | 1011.4 |
| 20260904211717 | 85 | 313 | 3.0 | 5.0 | 0.00 | 0.00 | 0.00 | 70 | 1011.5 |
| 20260904211219 | 85 | 350 | 2.0 | 4.0 | 0.00 | 0.00 | 0.00 | 71 | 1011.6 |
| 20260904210718 | 85 | 322 | 2.0 | 5.0 | 0.00 | 0.00 | 0.00 | 72 | 1011.5 |
| 20260904210216 | 84 | 318 | 2.0 | 6.0 | 0.00 | 0.00 | 0.00 | 71 | 1011.6 |
| 20260904205716 | 84 | 306 | 2.0 | 6.0 | 0.00 | 0.00 | 0.00 | 71 | 1011.6 |
| 20260904205438 | 84 | 309 | 2.0 | 5.0 | 0.00 | 0.00 | 0.00 | 71 | 1011.6 |
| 20260904204714 | 84 | 90 | 2.0 | 5.0 | 0.00 | 0.00 | 0.00 | 71 | 1011.6 |
| 20260904204434 | 84 | 327 | 2.0 | 5.0 | 0.00 | 0.00 | 0.00 | 71 | 1011.6 |
| 20260904203715 | 84 | 5 | 2.0 | 7.0 | 0.00 | 0.00 | 0.00 | 72 | 1011.5 |
| 20260904203214 | 84 | 302 | 3.0 | 7.0 | 0.00 | 0.00 | 0.00 | 72 | 1011.6 |
| 20260904202728 | 84 | 11 | 3.0 | 6.0 | 0.00 | 0.00 | 0.00 | 72 | 1011.5 |
| 20260904202214 | 84 | 344 | 2.0 | 7.0 | 0.00 | 0.00 | 0.00 | 72 | 1011.6 |
| 20260904201711 | 84 | 338 | 2.0 | 7.0 | 0.00 | 0.00 | 0.00 | 72 | 1011.5 |
| 20260904201204 | 84 | 331 | 2.0 | 7.0 | 0.00 | 0.00 | 0.00 | 73 | 1011.6 |
| 20260904200935 | 83 | 75 | 2.0 | 6.0 | 0.00 | 0.00 | 0.00 | 74 | 1011.6 |
| 20260904200205 | 83 | 75 | 2.0 | 8.0 | 0.00 | 0.00 | 0.00 | 74 | 1011.6 |
| 20260904195703 | 83 | 289 | 2.0 | 8.0 | 0.00 | 0.00 | 0.00 | 74 | 1011.6 |
| 20260904195206 | 83 | 32 | 2.0 | 7.0 | 0.00 | 0.00 | 0.00 | 74 | 1011.7 |
| 20260904194704 | 83 | 32 | 3.0 | 7.0 | 0.00 | 0.00 | 0.00 | 74 | 1011.7 |
| 20260904194205 | 83 | 319 | 3.0 | 7.0 | 0.00 | 0.00 | 0.00 | 74 | 1011.7 |
| 20260904193703 | 83 | 321 | 2.0 | 6.0 | 0.00 | 0.00 | 0.00 | 75 | 1011.7 |
| 20260904193206 | 83 | 315 | 2.0 | 6.0 | 0.00 | 0.00 | 0.00 | 74 | 1011.7 |
| 20260904192705 | 83 | 349 | 2.0 | 6.0 | 0.00 | 0.00 | 0.00 | 74 | 1011.7 |
| 20260904192205 | 82 | 49 | 3.0 | 8.0 | 0.00 | 0.00 | 0.00 | 76 | 1011.8 |
| 20260904191704 | 83 | 315 | 2.0 | 8.0 | 0.00 | 0.00 | 0.00 | 75 | 1011.8 |